Weather History for KAEG - January, 2014

Change the Weather History Date:

Sunday, January 19, 2014

  Actual Average Record
Temperature  
Mean Temperature 36 °F -  
Max Temperature 55 °F - - ()
Min Temperature 18 °F - - ()
Degree Days  
Heating Degree Days 28    
Moisture  
Dew Point 9 °F    
Average Humidity 41    
Maximum Humidity 58    
Minimum Humidity 18    
Precipitation  
Precipitation 0.00 in - - ()
Sea Level Pressure  
Sea Level Pressure 30.27 in    
Wind  
Wind Speed 2 mph (NW)    
Max Wind Speed 13 mph    
Max Gust Speed -    
Visibility 10 miles    
Events      
T = Trace of Precipitation, MM = Missing Value Source: NWS Daily Summary

Daily Weather History Graph

Daily Weather History Graph

Search for Another Location

Airport or City:

Trip Planner

Search our weather history database for the weather conditions in past years. The results will help you decide how hot, cold, wet, or windy it might be!

Date:

Astronomy

Jan. 19, 2014 Rise Set
Actual Time 7:13 AM MST 5:22 PM MST
Civil Twilight 6:46 AM MST 5:49 PM MST
Nautical Twilight 6:15 AM MST 6:20 PM MST
Astronomical Twilight 5:45 AM MST 6:51 PM MST
Moon 8:53 PM MST (1/19) 8:54 AM MST (1/19)
Length of Visible Light 11h 03m
Length of Day
10h 08m
Waning Gibbous, 89% of the Moon is Illuminated
Jan 19
Waning Gibbous
Jan 23
Last Quarter
Jan 30
New
Feb 6
First Quarter
Feb 14
Full

Hourly Weather History & Observations

Time (MST) Temp. Windchill Dew Point Humidity Pressure Visibility Wind Dir Wind Speed Gust Speed Precip Events Conditions
12:15 AM 32.0 °F - 8.8 °F 38% 30.32 in 10.0 mi Calm Calm - N/A   Clear
12:35 AM 22.3 °F - 5.4 °F 48% 30.32 in 10.0 mi Calm Calm - N/A   Clear
12:55 AM 22.1 °F - 5.0 °F 48% 30.32 in 10.0 mi Calm Calm - N/A   Clear
1:15 AM 20.7 °F - 5.2 °F 51% 30.32 in 10.0 mi Calm Calm - N/A   Clear
1:35 AM 20.5 °F 15.6 °F 5.2 °F 52% 30.32 in 10.0 mi WNW 3.5 mph - N/A   Clear
1:55 AM 19.0 °F - 4.3 °F 53% 30.33 in 10.0 mi Calm Calm - N/A   Clear
2:15 AM 24.1 °F 19.7 °F 6.3 °F 47% 30.32 in 10.0 mi North 3.5 mph - N/A   Clear
2:35 AM 24.3 °F 17.3 °F 6.8 °F 47% 30.32 in 10.0 mi ENE 5.8 mph - N/A   Clear
2:55 AM 24.1 °F - 6.6 °F 47% 30.33 in 10.0 mi Calm Calm - N/A   Clear
3:15 AM 21.9 °F - 5.5 °F 49% 30.33 in 10.0 mi Calm Calm - N/A   Clear
3:35 AM 21.2 °F - 5.5 °F 51% 30.33 in 10.0 mi Calm Calm - N/A   Clear
3:55 AM 18.1 °F 12.9 °F 5.2 °F 57% 30.32 in 10.0 mi NNW 3.5 mph - N/A   Clear
4:15 AM 18.9 °F 13.7 °F 5.9 °F 57% 30.32 in 10.0 mi WNW 3.5 mph - N/A   Clear
4:35 AM 18.3 °F 13.1 °F 5.7 °F 58% 30.32 in 10.0 mi WNW 3.5 mph - N/A   Clear
5:50 AM 19.4 °F - 6.8 °F 58% 30.33 in 10.0 mi Calm Calm - N/A   Clear
6:50 AM 19.4 °F - 6.8 °F 58% 30.33 in 10.0 mi Calm Calm - N/A   Clear
7:50 AM 26.6 °F - 10.4 °F 51% 30.34 in 10.0 mi Calm Calm - N/A   Clear
8:50 AM 33.8 °F - 12.2 °F 41% 30.35 in 10.0 mi Calm Calm - N/A   Clear
9:50 AM 39.2 °F - 12.2 °F 33% 30.37 in 10.0 mi Calm Calm - N/A   Clear
10:50 AM 44.6 °F - 14.0 °F 29% 30.35 in 10.0 mi Calm Calm - N/A   Clear
11:50 AM 48.2 °F - 12.2 °F 24% 30.31 in 10.0 mi SSW 3.5 mph - N/A   Clear
12:50 PM 50.0 °F - 14.0 °F 24% 30.26 in 10.0 mi Calm Calm - N/A   Partly Cloudy
1:50 PM 53.6 °F - 14.0 °F 21% 30.22 in 10.0 mi SSE 4.6 mph - N/A   Partly Cloudy
2:48 PM 53.6 °F - 12.2 °F 19% 30.20 in 10.0 mi Calm Calm - N/A   Partly Cloudy
3:48 PM 55.4 °F - 12.2 °F 18% 30.19 in 10.0 mi West 4.6 mph - N/A   Partly Cloudy
4:48 PM 53.6 °F - 12.2 °F 19% 30.19 in 10.0 mi West 4.6 mph - N/A   Partly Cloudy
5:49 PM 37.4 °F 30.8 °F 10.4 °F 33% 30.19 in 10.0 mi West 9.2 mph - N/A   Partly Cloudy
6:48 PM 39.2 °F - 10.4 °F 31% 30.21 in 10.0 mi Calm Calm - N/A   Clear
7:48 PM 32.0 °F 24.2 °F 10.4 °F 41% 30.21 in 10.0 mi WSW 9.2 mph - N/A   Clear
8:48 PM 35.6 °F 30.7 °F 10.4 °F 35% 30.22 in 10.0 mi West 5.8 mph - N/A   Clear
9:15 PM 28.2 °F 23.1 °F 8.2 °F 43% 30.22 in 10.0 mi WNW 4.6 mph - N/A   Clear
9:35 PM 30.0 °F 26.5 °F 9.0 °F 41% 30.22 in 10.0 mi NNW 3.5 mph - N/A   Clear
9:48 PM 30.2 °F 25.4 °F 8.6 °F 40% 30.22 in 10.0 mi NNW 4.6 mph - N/A   Clear
9:55 PM 32.0 °F 26.4 °F 9.3 °F 39% 30.22 in 10.0 mi NNW 5.8 mph - N/A   Clear
10:15 PM 32.0 °F 24.2 °F 9.5 °F 39% 30.22 in 10.0 mi NNW 9.2 mph - N/A   Clear
10:35 PM 34.3 °F 25.5 °F 10.4 °F 37% 30.22 in 10.0 mi NNW 12.7 mph - N/A   Clear
10:55 PM 34.7 °F 25.9 °F 10.4 °F 37% 30.22 in 10.0 mi NNW 12.7 mph - N/A   Clear
11:15 PM 34.9 °F 26.2 °F 10.4 °F 36% 30.22 in 10.0 mi NNW 12.7 mph - N/A   Clear
11:35 PM 34.2 °F 25.7 °F 10.4 °F 37% 30.21 in 10.0 mi NW 11.5 mph - N/A   Clear
11:55 PM 30.7 °F 24.9 °F 9.7 °F 41% 30.21 in 10.0 mi NW 5.8 mph - N/A   Clear